When you browse on this site, cookies collect data to enhance your experience and personalize the content and advertising you see.
Visit our Privacy Policy to learn more. By continuing to use the site, you agree to this use of cookies and data.
  • In United Kingdom
  • List of Countries
  • For 7 days
  • Water Temperature
  • Satellite Maps
  • Weather Map
  • Weather Widgets
  • user-avatar
    Login

    Hourly Weather Chitré

    Today, 20 July, Saturday

    Time Temperature Precipitation Wind Pressure Humidity
    00:00 +28°C° 0.1 mm 4 mps 754 mmHg 86%
    01:00 +28°C° 0 mm 4 mps 754 mmHg 87%
    02:00 +27°C° 0.1 mm 3 mps 753 mmHg 88%
    03:00 +27°C° 0.1 mm 3 mps 753 mmHg 89%
    04:00 +27°C° 0.1 mm 3 mps 753 mmHg 90%
    05:00 +27°C° 0 mm 2 mps 753 mmHg 89%
    06:00 +27°C° 0 mm 2 mps 753 mmHg 89%
    07:00 +28°C° 0 mm 2 mps 753 mmHg 88%
    08:00 +29°C° 0 mm 3 mps 754 mmHg 83%
    09:00 +30°C° 0 mm 3 mps 754 mmHg 79%
    10:00 +32°C° 0 mm 4 mps 754 mmHg 74%
    11:00 +33°C° 0.1 mm 4 mps 754 mmHg 72%
    12:00 +34°C° 0.1 mm 4 mps 753 mmHg 70%
    13:00 +34°C° 0.1 mm 4 mps 753 mmHg 68%
    14:00 +34°C° 0.5 mm 4 mps 752 mmHg 69%
    15:00 +34°C° 0.5 mm 4 mps 752 mmHg 70%
    16:00 +34°C° 0.5 mm 3 mps 751 mmHg 71%
    17:00 +33°C° 0.6 mm 4 mps 752 mmHg 75%
    18:00 +30°C° 0.6 mm 4 mps 752 mmHg 80%
    19:00 +29°C° 0.6 mm 4 mps 752 mmHg 84%
    20:00 +29°C° 0 mm 4 mps 753 mmHg 85%
    21:00 +29°C° 0 mm 4 mps 753 mmHg 85%
    22:00 +28°C° 0 mm 3 mps 754 mmHg 86%
    23:00 +28°C° 0 mm 3 mps 754 mmHg 87%

    Tomorrow, 21 July, Sunday

    Time Temperature Precipitation Wind Pressure Humidity
    00:00 +28°C° 0 mm 3 mps 754 mmHg 89%
    01:00 +28°C° 0 mm 2 mps 754 mmHg 90%
    02:00 +27°C° 0 mm 2 mps 753 mmHg 90%
    03:00 +27°C° 0 mm 2 mps 753 mmHg 90%
    04:00 +27°C° 0 mm 2 mps 753 mmHg 91%
    05:00 +27°C° 0.1 mm 2 mps 753 mmHg 90%
    06:00 +27°C° 0.1 mm 2 mps 753 mmHg 90%
    07:00 +27°C° 0.1 mm 3 mps 753 mmHg 90%
    08:00 +29°C° 0.3 mm 2 mps 753 mmHg 84%
    09:00 +30°C° 0.3 mm 2 mps 754 mmHg 79%
    10:00 +31°C° 0.3 mm 2 mps 754 mmHg 73%
    11:00 +32°C° 1.2 mm 1 mps 754 mmHg 72%
    12:00 +32°C° 1.2 mm 1 mps 754 mmHg 70%
    13:00 +32°C° 1.2 mm 1 mps 753 mmHg 69%
    14:00 +32°C° 2.5 mm 1 mps 753 mmHg 71%
    15:00 +32°C° 2.5 mm 2 mps 752 mmHg 73%
    16:00 +31°C° 2.5 mm 2 mps 752 mmHg 75%
    17:00 +30°C° 1.2 mm 2 mps 752 mmHg 79%
    18:00 +30°C° 1.2 mm 2 mps 753 mmHg 82%
    19:00 +29°C° 1.2 mm 2 mps 753 mmHg 86%
    20:00 +28°C° 0.1 mm 2 mps 754 mmHg 87%
    21:00 +28°C° 0.1 mm 2 mps 754 mmHg 88%
    22:00 +28°C° 0.1 mm 2 mps 755 mmHg 89%
    23:00 +27°C° 0 mm 2 mps 754 mmHg 89%

    Day after tomorrow, 22 July, Monday

    Time Temperature Precipitation Wind Pressure Humidity
    00:00 +27°C° 0 mm 2 mps 754 mmHg 89%
    01:00 +27°C° 0 mm 2 mps 754 mmHg 89%
    02:00 +27°C° 0 mm 2 mps 754 mmHg 90%
    03:00 +27°C° 0 mm 2 mps 753 mmHg 90%
    04:00 +27°C° 0 mm 2 mps 753 mmHg 90%
    05:00 +27°C° 0.7 mm 2 mps 753 mmHg 90%
    06:00 +27°C° 0.7 mm 2 mps 753 mmHg 91%
    07:00 +27°C° 0.7 mm 2 mps 754 mmHg 91%
    08:00 +28°C° 1.2 mm 2 mps 754 mmHg 87%
    09:00 +29°C° 1.2 mm 2 mps 755 mmHg 83%
    10:00 +30°C° 1.2 mm 2 mps 755 mmHg 79%
    11:00 +30°C° 2.5 mm 2 mps 755 mmHg 77%
    12:00 +31°C° 2.5 mm 2 mps 754 mmHg 75%
    13:00 +31°C° 2.5 mm 2 mps 754 mmHg 73%
    14:00 +30°C° 2.8 mm 2 mps 754 mmHg 78%
    15:00 +29°C° 2.8 mm 2 mps 753 mmHg 82%
    16:00 +29°C° 2.8 mm 2 mps 753 mmHg 86%
    17:00 +28°C° 2.3 mm 2 mps 754 mmHg 89%
    18:00 +27°C° 2.3 mm 2 mps 754 mmHg 91%
    19:00 +26°C° 2.3 mm 2 mps 754 mmHg 94%
    20:00 +26°C° 1.8 mm 2 mps 755 mmHg 94%
    21:00 +26°C° 1.8 mm 2 mps 756 mmHg 94%
    22:00 +26°C° 1.8 mm 2 mps 756 mmHg 95%
    23:00 +26°C° 0.5 mm 2 mps 756 mmHg 94%

    23 July, Tuesday

    Time Temperature Precipitation Wind Pressure Humidity
    00:00 +26°C° 0.5 mm 3 mps 756 mmHg 94%
    01:00 +26°C° 0.5 mm 3 mps 755 mmHg 94%
    02:00 +26°C° 0 mm 3 mps 755 mmHg 94%
    03:00 +26°C° 0 mm 3 mps 755 mmHg 93%
    04:00 +26°C° 0 mm 2 mps 754 mmHg 93%
    05:00 +26°C° 0 mm 2 mps 754 mmHg 93%
    06:00 +26°C° 0 mm 2 mps 755 mmHg 92%
    07:00 +26°C° 0 mm 2 mps 755 mmHg 91%
    08:00 +27°C° 0 mm 2 mps 755 mmHg 87%
    09:00 +28°C° 0 mm 2 mps 756 mmHg 83%
    10:00 +29°C° 0 mm 2 mps 756 mmHg 79%
    11:00 +29°C° 0.8 mm 2 mps 756 mmHg 82%
    12:00 +29°C° 0.8 mm 2 mps 756 mmHg 84%
    13:00 +28°C° 0.8 mm 2 mps 756 mmHg 86%
    14:00 +28°C° 1.5 mm 2 mps 755 mmHg 87%
    15:00 +27°C° 1.5 mm 2 mps 755 mmHg 88%
    16:00 +27°C° 1.5 mm 2 mps 754 mmHg 88%
    17:00 +27°C° 0.3 mm 2 mps 755 mmHg 90%
    18:00 +27°C° 0.3 mm 3 mps 755 mmHg 91%
    19:00 +26°C° 0.3 mm 3 mps 755 mmHg 92%
    20:00 +26°C° 0 mm 3 mps 756 mmHg 93%
    21:00 +26°C° 0 mm 3 mps 756 mmHg 93%
    22:00 +26°C° 0 mm 2 mps 757 mmHg 93%
    23:00 +26°C° 0 mm 2 mps 756 mmHg 93%

    24 July, Wednesday

    Time Temperature Precipitation Wind Pressure Humidity
    00:00 +26°C° 0 mm 2 mps 756 mmHg 93%
    01:00 +26°C° 0 mm 2 mps 756 mmHg 93%
    02:00 +26°C° 0 mm 2 mps 756 mmHg 93%
    03:00 +26°C° 0 mm 2 mps 755 mmHg 93%
    04:00 +25°C° 0 mm 2 mps 755 mmHg 93%
    05:00 +26°C° 0 mm 2 mps 755 mmHg 92%
    06:00 +26°C° 0 mm 2 mps 755 mmHg 92%
    07:00 +26°C° 0 mm 1 mps 755 mmHg 92%
    08:00 +26°C° 0.1 mm 1 mps 756 mmHg 91%
    09:00 +26°C° 0.1 mm 1 mps 756 mmHg 90%
    10:00 +27°C° 0.1 mm 1 mps 757 mmHg 89%
    11:00 +27°C° 0 mm 1 mps 756 mmHg 86%
    12:00 +28°C° 0 mm 2 mps 756 mmHg 82%
    13:00 +29°C° 0 mm 2 mps 755 mmHg 79%
    14:00 +30°C° 0 mm 2 mps 755 mmHg 76%
    15:00 +30°C° 0 mm 2 mps 754 mmHg 72%
    16:00 +31°C° 0 mm 1 mps 753 mmHg 69%
    17:00 +30°C° 0.6 mm 1 mps 754 mmHg 75%
    18:00 +28°C° 0.6 mm 2 mps 754 mmHg 81%
    19:00 +27°C° 0.6 mm 2 mps 754 mmHg 86%
    20:00 +27°C° 0 mm 2 mps 755 mmHg 87%
    21:00 +27°C° 0 mm 2 mps 755 mmHg 87%
    22:00 +26°C° 0 mm 2 mps 756 mmHg 88%
    23:00 +26°C° 0 mm 2 mps 755 mmHg 88%

    25 July, Thursday

    Time Temperature Precipitation Wind Pressure Humidity
    00:00 +26°C° 0 mm 2 mps 755 mmHg 88%
    01:00 +26°C° 0 mm 3 mps 755 mmHg 88%
    02:00 +26°C° 0 mm 2 mps 754 mmHg 89%
    03:00 +26°C° 0 mm 2 mps 754 mmHg 89%
    04:00 +26°C° 0 mm 2 mps 754 mmHg 90%
    05:00 +26°C° 0.2 mm 2 mps 754 mmHg 90%
    06:00 +26°C° 0.2 mm 2 mps 754 mmHg 90%
    07:00 +26°C° 0.2 mm 2 mps 755 mmHg 91%
    08:00 +28°C° 0.9 mm 2 mps 755 mmHg 86%
    09:00 +29°C° 0.9 mm 2 mps 755 mmHg 81%
    10:00 +30°C° 0.9 mm 2 mps 755 mmHg 76%
    11:00 +30°C° 1.3 mm 1 mps 755 mmHg 75%
    12:00 +30°C° 1.3 mm 1 mps 754 mmHg 75%
    13:00 +28°C° 1.3 mm 0 mps 754 mmHg 74%
    14:00 +30°C° 1.4 mm 1 mps 754 mmHg 75%
    15:00 +30°C° 1.4 mm 1 mps 753 mmHg 77%
    16:00 +30°C° 1.4 mm 2 mps 753 mmHg 78%
    17:00 +29°C° 1.1 mm 2 mps 753 mmHg 81%
    18:00 +28°C° 1.1 mm 2 mps 754 mmHg 84%
    19:00 +27°C° 1.1 mm 3 mps 754 mmHg 86%
    20:00 +27°C° 0.5 mm 3 mps 755 mmHg 87%
    21:00 +27°C° 0.5 mm 3 mps 755 mmHg 88%
    22:00 +27°C° 0.5 mm 3 mps 755 mmHg 89%
    23:00 +26°C° 0.4 mm 3 mps 755 mmHg 90%
    Show more